This is the latest recevied weather packets stored in our database for station/object KN6WGU. If no packets are shown the sender has not sent any weather packets the latest 10 day(s).
| Time | Temp. | Humidity | Pressure | Rain* | Wind** | Luminosity | Snow |
|---|---|---|---|---|---|---|---|
| 1788522362 | 20.56° C | 99% | 1009.1 hPa | 0 mm | - | 14 W/m² | - |
| 1788522057 | 20.56° C | 99% | 1009.1 hPa | 0 mm | - | 17 W/m² | - |
| 1788521756 | 20.56° C | 99% | 1009 hPa | 0 mm | - | 18 W/m² | - |
| 1788521450 | 20.56° C | 99% | 1008.9 hPa | 0 mm | - | 16 W/m² | - |
| 1788521146 | 20.56° C | 99% | 1008.9 hPa | 0 mm | - | 13 W/m² | - |
| 1788520843 | 20° C | 99% | 1008.9 hPa | 0 mm | - | 9 W/m² | - |
| 1788520538 | 20° C | 99% | 1008.8 hPa | 0 mm | - | 7 W/m² | - |
| 1788520232 | 20° C | 99% | 1008.9 hPa | 0 mm | - | 6 W/m² | - |
| 1788519926 | 20° C | 99% | 1008.9 hPa | 0 mm | - | 4 W/m² | - |
| 1788519622 | 20° C | 99% | 1008.7 hPa | 0 mm | - | 4 W/m² | - |
| 1788519316 | 20° C | 99% | 1008.7 hPa | 0 mm | - | 4 W/m² | - |
| 1788519011 | 20° C | 99% | 1008.7 hPa | 0 mm | - | 1 W/m² | - |
| 1788518706 | 20° C | 99% | 1008.3 hPa | 0 mm | - | 0 W/m² | - |
| 1788518402 | 20° C | 99% | 1008.3 hPa | 0 mm | - | 0 W/m² | - |
| 1788518092 | 20° C | 99% | 1008.2 hPa | 0 mm | - | 0 W/m² | - |
| 1788517788 | 20° C | 99% | 1008.1 hPa | 0 mm | - | 0 W/m² | - |
| 1788517483 | 20° C | 99% | 1008.4 hPa | 0 mm | - | 0 W/m² | - |
| 1788517178 | 20° C | 99% | 1008.6 hPa | 0 mm | - | 0 W/m² | - |
| 1788516875 | 20° C | 99% | 1008.3 hPa | 0 mm | - | 0 W/m² | - |
| 1788516565 | 20° C | 99% | 1008.2 hPa | 0 mm | - | 0 W/m² | - |
| 1788516261 | 20° C | 99% | 1008.3 hPa | 0 mm | - | 0 W/m² | - |
| 1788515960 | 20° C | 99% | 1008.2 hPa | 0 mm | - | 0 W/m² | - |
| 1788515655 | 20° C | 99% | 1008.1 hPa | 0 mm | - | 0 W/m² | - |
| 1788515350 | 20° C | 99% | 1008.1 hPa | 0 mm | - | 0 W/m² | - |
| 1788515045 | 20° C | 99% | 1008 hPa | 0 mm | - | 0 W/m² | - |
* Rain latest hour (hover to see other rain measurements)
** Current wind speed in m/s (hover to see current wind gust speed)